DW6561 Weather Reports


time (UTC)temp
C
wind
direction
speed
KPH
gust
KPH
rain 1hr
cm
rain 24hr
cm
rain mn
cm
humidity
%
barometer
mb
20260904131527 10 183 0.0 9.7 0.00 0.00 0.00 78 1012.1
20260904130025 10 123 1.6 6.4 0.00 0.00 0.00 78 1012.1
20260904124510 10 58 0.0 0.0 0.00 0.00 0.00 77 1012.1
20260904123013 10 58 0.0 0.0 0.00 0.00 0.00 77 1012.1
20260904121511 10 183 0.0 0.0 0.00 0.00 0.00 77 1011.9
20260904120029 11 183 0.0 1.6 0.00 0.00 0.00 77 1011.7
20260904114536 11 188 0.0 0.0 0.00 0.00 0.00 72 1011.7
20260904113026 11 188 0.0 1.6 0.00 0.00 0.00 72 1011.5
20260904111522 11 188 0.0 9.7 0.00 0.00 0.00 71 1011.3
20260904110020 11 181 4.8 14.5 0.00 0.00 0.00 70 1011.1
20260904104513 11 186 4.8 9.7 0.00 0.00 0.00 70 1011.0
20260904103032 12 94 0.0 6.4 0.00 0.00 0.00 68 1010.9
20260904101519 12 136 1.6 8.0 0.00 0.00 0.00 68 1010.8
20260904100003 12 176 1.6 11.3 0.00 0.00 0.00 66 1010.6
20260904094508 11 155 3.2 9.7 0.00 0.00 0.00 63 1010.4
20260904093012 11 147 3.2 8.0 0.00 0.00 0.00 63 1010.4
20260904091517 12 215 0.0 3.2 0.00 0.00 0.00 64 1010.4
20260904090016 12 98 0.0 1.6 0.00 0.00 0.00 61 1010.3
20260904084504 13 92 0.0 0.0 0.00 0.00 0.00 58 1010.3
20260904083008 13 113 0.0 8.0 0.00 0.00 0.00 54 1010.3
20260904081506 13 191 0.0 8.0 0.00 0.00 0.00 56 1010.2
20260904080021 13 178 1.6 8.0 0.00 0.00 0.00 56 1010.4
20260904074523 13 273 0.0 0.0 0.00 0.00 0.00 55 1010.6
20260904073003 13 190 0.0 3.2 0.00 0.00 0.00 55 1010.4
20260904071513 13 124 0.0 4.8 0.00 0.00 0.00 56 1010.3
20260904070015 13 117 0.0 4.8 0.00 0.00 0.00 57 1010.3
20260904064508 13 34 0.0 1.6 0.00 0.00 0.00 57 1010.3
20260904063030 13 136 0.0 0.0 0.00 0.00 0.00 57 1010.1
20260904061508 13 128 0.0 0.0 0.00 0.00 0.00 56 1009.9
20260904060013 14 128 0.0 0.0 0.00 0.00 0.00 55 1009.8
20260904054523 14 128 0.0 0.0 0.00 0.00 0.00 54 1009.8
20260904053014 15 117 0.0 3.2 0.00 0.00 0.00 51 1009.8
20260904051511 15 104 0.0 8.0 0.00 0.00 0.00 50 1009.8
20260904050018 15 136 3.2 11.3 0.00 0.00 0.00 49 1009.9
20260904044555 15 182 3.2 11.3 0.00 0.00 0.00 48 1009.9
20260904043024 16 152 1.6 11.3 0.00 0.00 0.00 47 1009.8
20260904041526 16 136 1.6 6.4 0.00 0.00 0.00 48 1009.7
20260904040003 16 142 0.0 4.8 0.00 0.00 0.00 48 1009.3
20260904034502 16 143 0.0 4.8 0.00 0.00 0.00 48 1009.4
20260904033002 16 128 0.0 4.8 0.00 0.00 0.00 48 1009.2
20260904031504 16 159 0.0 6.4 0.00 0.00 0.00 49 1009.3
20260904030008 16 189 1.6 4.8 0.00 0.00 0.00 48 1009.3
20260904024505 17 115 1.6 4.8 0.00 0.00 0.00 47 1009.0
20260904023003 17 134 0.0 6.4 0.00 0.00 0.00 46 1008.8
20260904021509 17 153 0.0 3.2 0.00 0.00 0.00 44 1008.9
20260904020003 18 169 0.0 0.0 0.00 0.00 0.00 44 1009.0
20260904014508 18 169 0.0 0.0 0.00 0.00 0.00 42 1009.1
20260904013010 18 169 0.0 0.0 0.00 0.00 0.00 42 1009.2
20260904011503 18 176 0.0 3.2 0.00 0.00 0.00 41 1009.3
20260904010004 18 200 0.0 4.8 0.00 0.00 0.00 40 1009.3
20260904004502 18 200 0.0 3.2 0.00 0.00 0.00 40 1009.2
20260904003001 18 200 0.0 0.0 0.00 0.00 0.00 40 1009.3
20260904001518 18 200 0.0 0.0 0.00 0.00 0.00 41 1009.5
20260904000003 19 200 0.0 3.2 0.00 0.00 0.00 39 1009.6
20260903234507 19 127 0.0 8.0 0.00 0.00 0.00 38 1009.6
20260903233009 19 169 0.0 8.0 0.00 0.00 0.00 39 1009.6
20260903231506 19 167 0.0 9.7 0.00 0.00 0.00 39 1009.7
20260903230003 19 115 3.2 9.7 0.00 0.00 0.00 39 1009.9
20260903224503 19 256 0.0 6.4 0.00 0.00 0.00 40 1009.8
20260903223013 19 132 4.8 16.1 0.00 0.00 0.00 38 1010.1
20260903221516 19 169 4.8 14.5 0.00 0.00 0.00 38 1010.3
20260903220012 19 211 4.8 11.3 0.00 0.00 0.00 39 1010.3
20260903214511 19 177 0.0 4.8 0.00 0.00 0.00 40 1010.5
20260903213005 19 194 0.0 9.7 0.00 0.00 0.00 39 1010.7
20260903211513 19 286 0.0 8.0 0.00 0.00 0.00 41 1010.8
20260903210020 18 158 1.6 11.3 0.00 0.00 0.00 42 1010.9
20260903204523 19 188 3.2 8.0 0.00 0.00 0.00 42 1011.0
20260903203017 19 223 6.4 12.9 0.00 0.00 0.00 40 1010.8
20260903201513 19 175 1.6 16.1 0.00 0.00 0.00 42 1011.0
20260903200007 19 194 3.2 8.0 0.00 0.00 0.00 42 1011.1
20260903194524 19 195 0.0 11.3 0.00 0.00 0.00 44 1011.2
20260903193028 18 144 1.6 8.0 0.00 0.00 0.00 45 1011.4
20260903191536 18 219 3.2 8.0 0.00 0.00 0.00 47 1011.4
20260903190003 18 123 3.2 9.7 0.00 0.00 0.00 51 1011.6
20260903184502 18 192 3.2 9.7 0.00 0.00 0.00 50 1011.7
20260903183007 18 178 3.2 11.3 0.00 0.00 0.00 50 1011.8
20260903181508 18 151 4.8 14.5 0.00 0.00 0.00 49 1011.8
20260903180002 18 186 6.4 17.7 0.00 0.00 0.00 50 1011.7
20260903174503 17 238 0.0 16.1 0.00 0.00 0.00 51 1011.6
20260903173003 17 253 0.0 11.3 0.00 0.00 0.00 52 1011.7
20260903171503 17 236 0.0 12.9 0.00 0.00 0.00 53 1011.7
20260903170003 16 156 4.8 19.3 0.00 0.00 0.00 55 1011.7
20260903164503 15 160 4.8 17.7 0.00 0.00 0.00 60 1011.6
20260903163004 15 148 6.4 16.1 0.00 0.00 0.00 61 1011.5
20260903161506 15 196 8.0 19.3 0.00 0.00 0.00 60 1011.7
20260903160005 15 190 9.7 20.9 0.00 0.00 0.00 60 1011.4
20260903154503 14 210 6.4 16.1 0.00 0.00 0.00 63 1011.3
20260903153003 14 189 8.0 19.3 0.00 0.00 0.00 66 1011.3
20260903151509 13 146 8.0 19.3 0.00 0.00 0.00 70 1011.3
20260903150014 13 126 8.0 19.3 0.00 0.00 0.00 72 1011.3
20260903144515 12 152 9.7 24.1 0.00 0.00 0.00 77 1011.4
20260903143011 12 169 8.0 17.7 0.00 0.00 0.00 80 1011.3
20260903141506 11 216 6.4 17.7 0.00 0.00 0.00 84 1011.2
20260903140010 11 232 6.4 19.3 0.00 0.00 0.00 85 1011.2
20260903134510 11 172 8.0 16.1 0.00 0.00 0.00 85 1011.2
20260903133015 11 194 6.4 17.7 0.00 0.00 0.00 85 1011.0